[Date Prev][Date Next][Thread Prev][Thread Next][Date Index][Thread Index]

[jamsat-news:911] jas2info #93



=========================   最新情報   ==============================

        Last updated :Thu.20-Aug.-98 18:00 (JST) #93

====================================================================
   
     衛星情報 FOシリーズの軌道要素、テレメトリ、QSOの状況等をま
   とめてみました.

  1)FO−29(ふじ3号)は8月20日 (木)の16:26(JST)の
     パスではJAアナログモードで運用されていました.
         
  ■ 軌道要素1:「jamsatーkeps:805」より
                 SB KEPS @ AMSAT  $ORB98226.N
                 2Line Orbital Elements 98226.AMSAT

       HR AMSAT ORBITAL ELEMENTS FOR AMATEUR SATELLITES IN NASA FORMAT
       FROM WA5QGD FORT WORTH,TX August 14, 1998
       SEND SUBSCRIBE/UNSUBSCRIBE TO majordomo@amsat.org ONLY
       BID: ORB98226.N

  DECODE 2-LINE ELSETS WITH THE FOLLOWING KEY:
  1 AAAAAU 00  0  0 BBBBB.BBBBBBBB  .CCCCCCCC  00000-0  00000-0 0  DDDZ
  2 AAAAA EEE.EEEE FFF.FFFF GGGGGGG HHH.HHHH III.IIII JJ.JJJJJJJJKKKKKZ
  KEY: A-CATALOGNUM B-EPOCHTIME C-DECAY D-ELSETNUM E-INCLINATION F-RAAN
  G-ECCENTRICITY H-ARGPERIGEE I-MNANOM J-MNMOTION K-ORBITNUM Z-CHECKSUM
  TO ALL RADIO AMATEURS BT

  FO-29
  1 24278U 96046B   98225.06020323  .00000016  00000-0  51588-4 0 01855
  2 24278 098.5200 213.0718 0351646 172.4000 188.2699 13.52645420098158

 ■ 軌道要素2:「jamsatーkeps:806」より
                 SB KEPS @ AMSAT  $ORB98226.O
                 Orbital Elements  98226.OSCAR

    HR AMSAT ORBITAL ELEMENTS FOR OSCAR SATELLITES
    FROM WA5QGD FORT WORTH,TX August 14, 1998
    SEND SUBSCRIBE/UNSUBSCRIBE TO majordomo@amsat.org ONLY
    BID: ORB98226.O
    TO ALL RADIO AMATEURS BT

  Satellite: FO-29
  Catalog number: 24278
  Epoch time:      98225.06020323
  Element set:    0185
  Inclination:      098.5200 deg
  RA of node:       213.0718 deg
  Eccentricity:    0.0351646
  Arg of perigee:   172.4000 deg
  Mean anomaly:     188.2699 deg
  Mean motion:   13.52645420 rev/day
  Decay rate:        1.6e-07 rev/day^2
  Epoch rev:           09815
  Checksum:              291
 -----------------------------------------------------------
  1 )FO−29(ふじ3号)の 8月20日(木)はJAアナログモードで
     運用され、ビーコン波にのったテレメトリの一部分は次のようにな
     っていました.
  AS9913C    20AUG98
  JST 16:25 - 16:46
                                 
 HI HI AE C7 88 55 00 B7 07 BA 87 01 48 8C 6F 60 93 91 B0 A1 92 90 92 92 8E 
 HI HI AE C7 88 55 00 B7 07 BA 09 01 56 6B 78 60 93 91 B0 B5 92 90 92 93 8E 
 HI HI AE C7 88 55 00 B7 07 BA 09 01 8B 60 7A 60 93 91 B0 80 92 90 92 92 8E 
 HI HI AE C7 88 55 00 B7 07 BA 09 01 8F 78 7B 60 93 91 B0 7E 92 90 93 92 7E 
 HI HI AE C7 88 55 00 B7 07 BA 09 01 55 82 7F 60 93 91 B0 83 92 90 63 92 8E 
 HI HI AE C7 88 5S 00 B7 07 BA 09 01 53 6E 7E 60 93 91 B0 7E 92 90 92 92 8E 
 HI HI AE C7 88 55 00 B7 07 BA 09 01 6E 4D 7E 60 93 91 B0 6B 92 90 92 92 8E 
 HI HI AE C7 88 55 00 B7 07 BA 09 01 97 4C 76 60 93 90 B0 7B 92 90 92 92 8E 
 HI HI AE C7 88 55 00 B7 07 BA 09 01 78 63 7E 60 93 91 B0 62 92 90 92 92 8E 
 HI HI AE C7 88 55 00 B7 07 BA 09 01 3E 59 75 60 93 91 B0 56 92 90 92 92 6E
 HI HI AE C7 88 55 00 B7 07 BA 09 01 43 56 7E 60 93 91 B0 9F 92 90 92 92 8E

  
  2 ) JAアナログCWテレメトリの換算値例
	FO−29(ふじ3号)	
       (上記テレメトリの7行目を換算)
					
 テレメトリ   内   容          換算値  単位
 3C	磁気センサーZ軸=	53921.6	nT
 3D	磁気センサX軸	=	37745.1	nT
 4A	太陽電池発生電流=	 1235.3	mA
 4B	B充放電電流	=	 -118.4	mA
 4C	B端子電圧	=	   15.8	V
 4D	B中間端子電圧	=	    7.0	V
 5A	バス電圧	=	   17.3	V
 5B	JTA送信電力	=	  597.4	mW
 5C 	構体温度1	=	   25.2	℃
 5D	構体温度2	=	   26.0	℃
 6A	構体温度3	=	   25.2	℃
 6B	構体温度4	=	   25.2	℃
 6C	Bセル温度	=	   26.7	℃

   *計算処理は OFFICE 97 を使用.
   
 ==========================================================================  
  3)FO−20(ふじ 2号)のCWテレメトリは8月20日(木)のパスでも切れ
    目の無い連続音になっいましたが,アナログ QSOは通常どうり行われております.
 -------------------------------------------------------------------------- 
 
 ■ 軌道要素1 :出典は「ふじ3号」に同じ.
 
  FO-20
  1 20480U 90013C   98225.14029768  .00000010  00000-0  88471-4 0 00848
  2 20480 099.0647 113.0412 0541490 142.4068 221.6199 12.83244582398820

  ■ 軌道要素2 :出典は「ふじ3号」に同じ. 
  
  Satellite: FO-20
  Catalog number: 20480
  Epoch time:      98225.14029768
  Element set:    0084
  Inclination:      099.0647 deg
  RA of node:       113.0412 deg
  Eccentricity:    0.0541490
  Arg of perigee:   142.4068 deg
  Mean anomaly:     221.6199 deg
  Mean motion:   12.83244582 rev/day
  Decay rate:        1.0e-07 rev/day^2
  Epoch rev:           39882
  Checksum:              297
  
  =======================  FO-29 のテレメトリ分析  ===================
  
     JE9PEL/1 局 の脇田 美根夫氏がテレメトリ解析プログラムを提供して下
   さいました.脇田さんのHPでは前回よりバージョンアップされていました.
     システム自体は非常に使いやすく出来ておりますし、殆ど自動的に換算でき
   便利でした.現在 WINDOWS 98 を使用したバージョンのものも提供されており
   次回紹介しましょう.

【著 作 者】 --------------------------------------------
        Name : JE9PEL/1 脇田美根夫
        Mail : JE9PEL@jamsat.or.jp
        URL  : http://www.asahi-net.or.jp/~EI7M-WKT/
 
  =========================   JARL運用情報   =========================

  *JARL のホームページに運用の予定変更が記載されていましたのでご紹介します.

        ■ ふじ3号/FO−29 ■  
  QTC ! 
太陽活動の活性化に伴い衛星のコンピュータメモリーに2bitエラーが頻繁に発生し
ています。このためソフトウエアーのハングアップや誤動作が発生しています。
2bitエラーの発生頻度を調査するためにしばらくの間、アナログ系運用を行います。
衛星のユーザーのみなさまでCWテレメトリの2Aの値が00から変化していることを確
認された方はJARL技術課まで連絡をお願いいたします。
 CWテレメトリの2Aの位置はHI HIから5つ目の2桁の数値です。通常は00を示し
ています。
 連絡先 : lab@jarl.or.jp

 以後の運用に付きましては7月10日18時頃にお知らせいたします。

        ■ ふじ2号/FO−20 ■      
            「ふじ2号」 現況                                                                                               
   JAS-1b/FO-20(ふじ2号)の不具合発生について
    JAS-1b(ふじ2号)のCWテレメトリ信号に,1997年10月12日12時
 (JST)の日本上空通過時,3桁の数字が繰り返されるはずが3個の長音の
  繰り返しとなっているという異常が発見されました。この不具合は次の通過時
  からは回復していましたが13日15時20分の通過時に再び観測されました。
  衛星のアナログ系中継モード動作は異常が無く,正常時のテレメトリ内容からは
  衛星の動作に異常は認められません。従って,直ちに衛星のミッションに影響す
  ることは無いと予想されますので,当面はアナログ系中継モードを継続します。
  衛星は既に打ち上げてから7年8ヶ月を経ておりますので,今後は監視を強化す
  る予定です。アマチュア各位のレポートをお待ちします.   
  
  以上  http://www.jarl.or.jp/Japanese/3_Fuji/jr1nvu.htm  より.
                                           
   =============   JAS-2 (ふじ3号)と現在までの情報   ===========  
  A.電話によるふじ3号の運用情報
      社団法人日本アマチュア連盟によるサービス
           TEL .   03− 3942 − 1000
  B.アマチュア無線FAXサービス
      JARLによるふじ3号の軌道情報(オービットカレンダー)
         FAX No.  03− 3233 −0055
  C.WWWブラウザで情報を簡単に見れる人のためにJAS−2
     ふじ3号の衛星としての運用されるまでの名前)の概要、打ち上げ
     までの状況、運用中における状況を説明したホームページを紹介し
     ておきます.
    1)社団法人日本アマチュア無線連盟(JARL)のホームページ

          http://www.jarl.or.jp/Japanese/3_Fuji/jr1nvu.htm
 
    2)宇宙開発事業団(NASDA)ホームページ 
          http://www.nasda.go.jp/
         打上げ衛星 :地球観測プラットフォーム技術衛星(ADEOS) 
                       アマチュア衛星3号(JAS-2)
          http://yyy.tksc.nasda.go.jp/Home/Press/Press-j/jas-2_j.html        

  D.JAMSATによる軌道情報の活用
        JAMSATのホームページまたはjamsat−kepsの軌道要素より
      衛星の軌道情報を得る.
     JAMSATホームページ
               URL    http://www.jamsat.or.jp
       上記ホームページでは各地で行われるアマチュア通信衛星に関する
      ミューティングのお知らせや世界のアマチュア衛星に関する情報が
      満載されています.
   
 =========================================================================
       JAMSATのメンバーのご協力によりJH6MME(高山 秀造)が
    執筆・編集を担当しております.ご指摘の意見、疑問やこのようにしたら
    というアイデアがありましたら小さなことでもかまいませんので気軽に下
    記アドレスまでご連絡ください.jamsat−newsからjas2
    infoへの転載をJH4PHW局坂井さんに担当して頂いております.
                    Eーmail : jh6mme@jamsat.or.jp : jh4phw@jamsat.or.jp
 ===============================   END  ===============================